When you browse on this site, cookies collect data to enhance your experience and personalize the content and advertising you see.
Visit our Privacy Policy to learn more. By continuing to use the site, you agree to this use of cookies and data.
  • In Austria
  • List of Countries
  • For 7 days
  • Water Temperature
  • Satellite Maps
  • Weather Map
  • News
  • Weather Widgets
  • user-avatar
    Login

    Hourly Weather Bregenz

    Today, 21 May, Tuesday

    Time Temperature Precipitation Wind Pressure Humidity
    00:00 +4°C° 3.1 mm 3 mps 640 mmHg 97%
    01:00 +4°C° 0 mm 4 mps 640 mmHg 98%
    02:00 +4°C° 2 mm 4 mps 640 mmHg 98%
    03:00 +4°C° 2 mm 3 mps 640 mmHg 98%
    04:00 +3°C° 2 mm 3 mps 640 mmHg 97%
    05:00 +4°C° 0.7 mm 3 mps 641 mmHg 97%
    06:00 +4°C° 0.7 mm 3 mps 641 mmHg 96%
    07:00 +4°C° 0 mm 3 mps 641 mmHg 97%
    08:00 +4°C° 0.5 mm 3 mps 641 mmHg 94%
    09:00 +5°C° 0.5 mm 3 mps 642 mmHg 92%
    10:00 +7°C° 0.5 mm 3 mps 642 mmHg 90%
    11:00 +7°C° 1.6 mm 3 mps 642 mmHg 91%
    12:00 +7°C° 1.6 mm 2 mps 642 mmHg 93%
    13:00 +6°C° 1.6 mm 2 mps 643 mmHg 94%
    14:00 +6°C° 2.2 mm 2 mps 643 mmHg 95%
    15:00 +6°C° 2.2 mm 2 mps 643 mmHg 96%
    16:00 +6°C° 2.2 mm 2 mps 643 mmHg 97%
    17:00 +6°C° 1.5 mm 1 mps 643 mmHg 97%
    18:00 +6°C° 1.5 mm 1 mps 643 mmHg 97%
    19:00 +6°C° 1.5 mm 1 mps 643 mmHg 97%
    20:00 +6°C° 1.3 mm 1 mps 644 mmHg 97%
    21:00 +6°C° 1.3 mm 1 mps 644 mmHg 97%
    22:00 +6°C° 1.3 mm 1 mps 645 mmHg 97%
    23:00 +6°C° 1 mm 1 mps 645 mmHg 97%

    Tomorrow, 22 May, Wednesday

    Time Temperature Precipitation Wind Pressure Humidity
    00:00 +5°C° 1 mm 1 mps 645 mmHg 97%
    01:00 +5°C° 1 mm 1 mps 645 mmHg 97%
    02:00 +5°C° 0.7 mm 1 mps 645 mmHg 97%
    03:00 +5°C° 0.7 mm 1 mps 645 mmHg 97%
    04:00 +4°C° 0.7 mm 0 mps 645 mmHg 97%
    05:00 +4°C° 0.6 mm 0 mps 645 mmHg 97%
    06:00 +5°C° 0.6 mm 0 mps 645 mmHg 96%
    07:00 +5°C° 0.6 mm 0 mps 645 mmHg 96%
    08:00 +5°C° 0.3 mm 0 mps 645 mmHg 95%
    09:00 +7°C° 0.3 mm 1 mps 646 mmHg 95%
    10:00 +7°C° 0.3 mm 1 mps 646 mmHg 94%
    11:00 +8°C° 0.1 mm 1 mps 646 mmHg 90%
    12:00 +9°C° 0.1 mm 1 mps 646 mmHg 86%
    13:00 +10°C° 0.1 mm 1 mps 647 mmHg 83%
    14:00 +11°C° 0.3 mm 1 mps 647 mmHg 79%
    15:00 +11°C° 0.3 mm 1 mps 647 mmHg 76%
    16:00 +12°C° 0.3 mm 1 mps 647 mmHg 73%
    17:00 +11°C° 0.5 mm 1 mps 647 mmHg 79%
    18:00 +10°C° 0.5 mm 1 mps 647 mmHg 85%
    19:00 +9°C° 0.5 mm 1 mps 647 mmHg 91%
    20:00 +8°C° 0.2 mm 1 mps 647 mmHg 92%
    21:00 +7°C° 0.2 mm 1 mps 647 mmHg 93%
    22:00 +5°C° 0.2 mm 0 mps 647 mmHg 94%
    23:00 +5°C° 0 mm 0 mps 647 mmHg 95%

    Day after tomorrow, 23 May, Thursday

    Time Temperature Precipitation Wind Pressure Humidity
    00:00 +5°C° 0 mm 0 mps 647 mmHg 95%
    01:00 +4°C° 0 mm 0 mps 647 mmHg 96%
    02:00 +4°C° 0 mm 0 mps 647 mmHg 96%
    03:00 +4°C° 0 mm 0 mps 647 mmHg 96%
    04:00 +3°C° 0 mm 0 mps 647 mmHg 96%
    05:00 +4°C° 0 mm 0 mps 647 mmHg 94%
    06:00 +5°C° 0 mm 0 mps 647 mmHg 93%
    07:00 +6°C° 0 mm 0 mps 647 mmHg 91%
    08:00 +8°C° 0 mm 0 mps 648 mmHg 83%
    09:00 +10°C° 0 mm 1 mps 648 mmHg 76%
    10:00 +12°C° 0 mm 1 mps 648 mmHg 68%
    11:00 +13°C° 0 mm 1 mps 648 mmHg 62%
    12:00 +14°C° 0 mm 2 mps 649 mmHg 56%
    13:00 +15°C° 0 mm 2 mps 649 mmHg 50%
    14:00 +15°C° 0 mm 2 mps 648 mmHg 51%
    15:00 +15°C° 0 mm 2 mps 648 mmHg 51%
    16:00 +14°C° 0 mm 3 mps 648 mmHg 52%
    17:00 +14°C° 0 mm 2 mps 648 mmHg 61%
    18:00 +13°C° 0 mm 2 mps 647 mmHg 69%
    19:00 +11°C° 0 mm 1 mps 647 mmHg 78%
    20:00 +10°C° 0 mm 1 mps 647 mmHg 83%
    21:00 +8°C° 0 mm 1 mps 647 mmHg 88%
    22:00 +6°C° 0 mm 1 mps 646 mmHg 93%
    23:00 +6°C° 0 mm 1 mps 646 mmHg 93%

    24 May, Friday

    Time Temperature Precipitation Wind Pressure Humidity
    00:00 +6°C° 0 mm 1 mps 646 mmHg 93%
    01:00 +5°C° 0 mm 1 mps 646 mmHg 92%
    02:00 +5°C° 0 mm 1 mps 645 mmHg 92%
    03:00 +5°C° 0 mm 1 mps 645 mmHg 91%
    04:00 +4°C° 0 mm 1 mps 645 mmHg 90%
    05:00 +6°C° 0 mm 1 mps 645 mmHg 85%
    06:00 +7°C° 0 mm 0 mps 646 mmHg 79%
    07:00 +8°C° 0 mm 0 mps 646 mmHg 74%
    08:00 +11°C° 0 mm 1 mps 646 mmHg 69%
    09:00 +13°C° 0 mm 1 mps 647 mmHg 63%
    10:00 +14°C° 0 mm 1 mps 647 mmHg 58%
    11:00 +15°C° 0 mm 2 mps 647 mmHg 55%
    12:00 +16°C° 0 mm 2 mps 647 mmHg 52%
    13:00 +16°C° 0 mm 2 mps 647 mmHg 49%
    14:00 +16°C° 0 mm 2 mps 647 mmHg 49%
    15:00 +16°C° 0 mm 2 mps 647 mmHg 50%
    16:00 +16°C° 0 mm 2 mps 646 mmHg 50%
    17:00 +15°C° 0 mm 2 mps 646 mmHg 58%
    18:00 +13°C° 0 mm 1 mps 646 mmHg 66%
    19:00 +12°C° 0 mm 1 mps 645 mmHg 74%
    20:00 +11°C° 0 mm 1 mps 645 mmHg 78%
    21:00 +9°C° 0 mm 1 mps 645 mmHg 82%
    22:00 +7°C° 0 mm 1 mps 645 mmHg 86%
    23:00 +7°C° 0 mm 1 mps 645 mmHg 87%

    25 May, Saturday

    Time Temperature Precipitation Wind Pressure Humidity
    00:00 +7°C° 0 mm 1 mps 645 mmHg 88%
    01:00 +6°C° 0 mm 1 mps 644 mmHg 89%
    02:00 +6°C° 0 mm 1 mps 644 mmHg 89%
    03:00 +6°C° 0 mm 1 mps 644 mmHg 89%
    04:00 +5°C° 0 mm 1 mps 644 mmHg 90%
    05:00 +7°C° 0 mm 1 mps 645 mmHg 85%
    06:00 +7°C° 0 mm 0 mps 645 mmHg 79%
    07:00 +9°C° 0 mm 0 mps 646 mmHg 74%
    08:00 +10°C° 0 mm 0 mps 647 mmHg 70%
    09:00 +13°C° 0 mm 1 mps 647 mmHg 65%
    10:00 +15°C° 0 mm 1 mps 647 mmHg 61%
    11:00 +15°C° 0.2 mm 2 mps 647 mmHg 61%
    12:00 +15°C° 0.2 mm 2 mps 647 mmHg 62%
    13:00 +16°C° 0.2 mm 2 mps 647 mmHg 63%
    14:00 +15°C° 0.3 mm 2 mps 647 mmHg 64%
    15:00 +15°C° 0.3 mm 2 mps 647 mmHg 66%
    16:00 +15°C° 0.3 mm 2 mps 647 mmHg 68%
    17:00 +14°C° 0.5 mm 2 mps 647 mmHg 75%
    18:00 +13°C° 0.5 mm 2 mps 647 mmHg 82%
    19:00 +12°C° 0.5 mm 2 mps 647 mmHg 89%
    20:00 +11°C° 0.2 mm 1 mps 647 mmHg 91%
    21:00 +10°C° 0.2 mm 1 mps 647 mmHg 93%
    22:00 +8°C° 0.2 mm 0 mps 647 mmHg 95%
    23:00 +7°C° 0 mm 0 mps 647 mmHg 95%

    26 May, Sunday

    Time Temperature Precipitation Wind Pressure Humidity
    00:00 +6°C° 0 mm 0 mps 647 mmHg 96%
    01:00 +6°C° 0 mm 0 mps 646 mmHg 96%
    02:00 +6°C° 0 mm 0 mps 646 mmHg 96%
    03:00 +6°C° 0 mm 0 mps 646 mmHg 96%
    04:00 +6°C° 0 mm 0 mps 646 mmHg 96%
    05:00 +6°C° 0 mm 0 mps 646 mmHg 95%
    06:00 +6°C° 0 mm 0 mps 647 mmHg 94%
    07:00 +7°C° 0 mm 0 mps 647 mmHg 93%
    08:00 +8°C° 0 mm 0 mps 647 mmHg 86%
    09:00 +10°C° 0 mm 1 mps 647 mmHg 80%
    10:00 +12°C° 0 mm 1 mps 647 mmHg 74%
    11:00 +13°C° 0 mm 1 mps 647 mmHg 68%
    12:00 +14°C° 0 mm 1 mps 647 mmHg 63%
    13:00 +14°C° 0 mm 2 mps 648 mmHg 57%
    14:00 +15°C° 0 mm 2 mps 647 mmHg 56%
    15:00 +15°C° 0 mm 2 mps 647 mmHg 55%
    16:00 +15°C° 0 mm 2 mps 647 mmHg 54%
    17:00 +14°C° 0 mm 1 mps 647 mmHg 61%
    18:00 +13°C° 0 mm 1 mps 647 mmHg 67%
    19:00 +12°C° 0 mm 1 mps 647 mmHg 74%
    20:00 +10°C° 0 mm 1 mps 647 mmHg 77%
    21:00 +8°C° 0 mm 0 mps 646 mmHg 81%
    22:00 +7°C° 0 mm 0 mps 646 mmHg 85%
    23:00 +6°C° 0 mm 0 mps 646 mmHg 86%
    Show more